STARLINK-6277, 56399

Orbit data source: Space-Track

STARLINK-6277, 56399 is a payload satellite owned by SpaceX/Seattle (US) in LEO that was launched on Thu, 04 May 2023 UTC via an FALCON 9 launch vehicle from the Air Force Eastern Test Range (AFETR). Payload-class satellites include a variety of spacecraft equipped with specific instruments for various scientific and technological missions. These include communications satellites like Starlink; space stations such as the ISS; scientific satellites like the Hubble; Earth observation satellites from companies like Planet Labs, Umbra, and HawkEye 360; GPS; miniature CubeSats for education and research; and military/defense satellites.

Loading next visibility...
Identifier
56399, 2023-061AB
Orbit
LEO
Last TLE update
17 hours ago
Origin
Manufacturer
SpaceX/Seattle
Mission
Operational Commercial Communications
Bus & Motor
STARLINK, Unknown motor
Mass
305 kg wet, ~290 kg dry
Launch date (UTC)
2023-05-04 (2 years ago)
Launch vehicle
FALCON 9
Launch site
Air Force Eastern Test Range (AFETR)
Object type
Payload
Rocket body
Debris
Shape & HBR
Box + 1 Pan, 9 m
Radar Cross Section
11.087 m², Large (>1 m²)

Expand to show TLE details & history

TLE from 17 hours ago
0 STARLINK-6277
1 56399U 23061AB  25188.93922248  .00000093  00000-0  21935-4 0  9993
2 56399  43.0039  74.7362 0001017 259.0144 101.0584 15.02532972120374
Epoch: 2025-07-07T22:32Z
TLE epoch observation values (Epoch: 2025-07-07T22:32:28.822Z)
Latitude
-0.00001°
Longitude
170.47473°
Altitude
559.003 km
Speed
7.584 km/s
True Right ascension
04h 58m 56s
True Declination
0° 00' 00"
Sunlit
Object was in daylight at epoch
Visualization orbit readout
Latitude
27.63221°
Longitude
-47.2108°
Altitude
559.726 km
Speed
7.586 km/s
Apparent Right ascension
14h 48m 05s
Apparent Declination
-4° 31' 39"
Sunlit
Object is in daylight
Visualization observer readout
Local Sidereal Time
03:13:04
Azimuth
10.678° NNE
Elevation
-54.165°
Doppler factor
1
Orbital elements
Apogee altitude
561.718 km
Perigee altitude
560.306 km
Semi-major axis
6,939.149 km
Eccentricity
0.0001
Inclination
43.0039°
RAAN
74.7362°
Arg. of periapsis
259.0144°
True anomaly
Unknown
Mean anomaly
101.0584°
Eccentric anomaly
Unknown
Mean motion
3.75477 °/min
Orbital period
95.88 mins
BSTAR
0.000021935
Loading maneuver chart data...
Loading SW <> Apogee altitude chart data...
Loading historical data...
Loading historical data...
Loading historical data...
Loading historical data...
Loading historical data...
Loading historical data...
Loading historical data...

STARLINK-6277 Visibility forecast

Observer location: undefined°, undefined°

Span
Click to sort rows by Start time (UTC) header in descending order
Start Az.
Max El. time (UTC)
Max El. Az.
Max El.
End time (UTC)
End Az.
7 mins2025-07-08 19:28:15.836Z217.007° SW2025-07-08 19:32:15.836Z143.632° SSE31.183°2025-07-08 19:35:15.836Z86.127° E
6 mins2025-07-08 21:10:15.836Z265.265° W2025-07-08 21:12:15.836Z303.043° NW42.586°2025-07-08 21:16:15.836Z70.551° E
6 mins2025-07-08 22:51:15.836Z293.705° NW2025-07-08 22:53:15.836Z343.427° N39.259°2025-07-08 22:57:15.836Z82.543° E
7 mins2025-07-09 00:31:15.836Z284.846° WNW2025-07-09 00:34:15.836Z220.275° SW43.668°2025-07-09 00:38:15.836Z118.312° SE
4 mins2025-07-09 02:13:15.836Z241.976° WSW2025-07-09 02:14:15.836Z224.276° SW17.604°2025-07-09 02:17:15.836Z175.821° S
|